Location: Newark
(21.1200°N, 73.4000°E)
Time: 20:52:59
(UTC+00:00)

LightSail 2 - Visible Passes

Search period start: 14 December 2019 00:00
Search period end: 24 December 2019 00:00
Orbit: 696 x 730 km, 24.0° (Epoch: 13 December)

Date Brightness Start Highest point End Pass type
(mag) Time Alt. Az. Time Alt. Az. Time Alt. Az.
14 Dec 7.8 14:15:29 10° WSW 14:18:05 14° SSW 14:20:39 10° S visible
15 Dec 7.6 13:16:18 10° WSW 13:20:01 20° SSW 13:23:44 10° SSE visible
17 Dec 8.1 13:07:33 10° SW 13:09:06 11° SSW 13:10:37 10° S visible
21 Dec 7.8 00:26:37 10° S 00:29:07 14° SSE 00:31:39 10° ESE visible
22 Dec 6.9 01:11:44 10° SW 01:16:13 32° SSE 01:20:45 10° E visible
23 Dec 7.2 00:14:08 10° SSW 00:18:08 23° SSE 00:22:08 10° ESE visible
23 Dec 7.4 23:18:43 15° S 23:20:03 17° SSE 23:23:13 10° ESE visible
